Hourly Data Report for April 06, 2017

All times are specified in Local Standard Time (LST). Add 1 hour to adjust for Daylight Saving Time where and when it is observed.

TORONTO CITY
ONTARIO

43°40'00.000" N
79°24'00.000" W
112.50 m
6158355
71508
XTO

Download Data

Hourly Data (April 2017)
Hourly Data Report for April 6, 2017
TIME Temp Definition
°C
Dew Point Definition
°C
Rel Hum Definition
%
Wind Dir Definition
10's deg

Wind Spd Definition
km/h
Visibility Definition
km
Stn Press Definition
kPa
Hmdx Definition


Wind Chill Definition


Weather Definition


00:00 6.5 1.9 72 LegendMM LegendMM   99.27     LegendNANA
01:00 6.6 1.9 72 LegendMM LegendMM   99.12     LegendNANA
02:00 6.8 2.3 73 LegendMM LegendMM   98.83     LegendNANA
03:00 6.4 2.2 75 LegendMM LegendMM   98.73     LegendNANA
04:00 6.5 2.9 78 LegendMM LegendMM   98.64     LegendNANA
05:00 6.2 3.4 83 LegendMM LegendMM   98.58     LegendNANA
06:00 6.3 3.8 84 LegendMM LegendMM   98.51     LegendNANA
07:00 6.4 4.4 87 LegendMM LegendMM   98.44     LegendNANA
08:00 5.9 4.4 90 LegendMM LegendMM   98.32     LegendNANA
09:00 6.0 4.5 90 LegendMM LegendMM   98.26     LegendNANA
10:00 5.8 4.6 92 LegendMM LegendMM   98.20     LegendNANA
11:00 5.6 4.6 93 LegendMM LegendMM   98.19     LegendNANA
12:00 5.8 4.8 93 LegendMM LegendMM   98.12     LegendNANA
13:00 6.2 5.1 92 LegendMM LegendMM   98.03     LegendNANA
14:00 7.2 5.8 90 LegendMM LegendMM   98.00     LegendNANA
15:00 6.8 5.2 90 LegendMM LegendMM   97.94     LegendNANA
16:00 6.2 4.2 87 LegendMM LegendMM   97.90     LegendNANA
17:00 5.4 3.2 86 LegendMM LegendMM   97.86     LegendNANA
18:00 4.0 2.2 88 LegendMM LegendMM   97.94     LegendNANA
19:00 2.9 1.2 88 LegendMM LegendMM   97.95     LegendNANA
20:00 2.7 0.9 88 LegendMM LegendMM   97.96     LegendNANA
21:00 2.7 0.9 88 LegendMM LegendMM   98.02     LegendNANA
22:00 2.1 0.7 91 LegendMM LegendMM   98.03     LegendNANA
23:00 1.5 0.2 91 LegendMM LegendMM   98.05     LegendNANA

Notes on Data Quality.

Legend

  • E = Estimated
  • M = Missing
  • NA = Not Available
Date modified: